• In Romania
  • List of Countries
  • For 7 days
  • Water Temperature
  • Satellite Maps
  • Weather Map
  • Weather Widgets
  • user-avatar
    Login

    Hourly Weather Bruges

    Today, 23 September, Sunday

    Time Temperature Precipitation Wind Pressure Humidity
    00:00 +11°C° 0 mm 3 mps 759 mmHg 92%
    01:00 +11°C° 0.3 mm 3 mps 759 mmHg 92%
    02:00 +11°C° 0.3 mm 3 mps 758 mmHg 92%
    03:00 +11°C° 0.3 mm 3 mps 758 mmHg 93%
    04:00 +11°C° 0.2 mm 3 mps 758 mmHg 93%
    05:00 +11°C° 0.2 mm 3 mps 758 mmHg 93%
    06:00 +12°C° 0.2 mm 2 mps 758 mmHg 93%
    07:00 +12°C° 0.2 mm 2 mps 758 mmHg 92%
    08:00 +12°C° 0.2 mm 3 mps 758 mmHg 91%
    09:00 +12°C° 0.2 mm 3 mps 758 mmHg 90%
    10:00 +12°C° 1.6 mm 4 mps 758 mmHg 90%
    11:00 +12°C° 1.6 mm 4 mps 758 mmHg 90%
    12:00 +12°C° 1.6 mm 5 mps 758 mmHg 90%
    13:00 +11°C° 0.9 mm 6 mps 759 mmHg 89%
    14:00 +11°C° 0.9 mm 6 mps 760 mmHg 87%
    15:00 +11°C° 0.9 mm 7 mps 761 mmHg 85%
    16:00 +11°C° 0.4 mm 7 mps 762 mmHg 84%
    17:00 +10°C° 0.4 mm 7 mps 763 mmHg 83%
    18:00 +10°C° 0.4 mm 7 mps 764 mmHg 82%
    19:00 +10°C° 0.2 mm 6 mps 765 mmHg 82%
    20:00 +10°C° 0.2 mm 6 mps 767 mmHg 81%
    21:00 +9°C° 0.2 mm 5 mps 768 mmHg 81%
    22:00 +9°C° 0.1 mm 5 mps 769 mmHg 81%
    23:00 +9°C° 0.1 mm 5 mps 770 mmHg 81%

    Tomorrow, 24 September, Monday

    Time Temperature Precipitation Wind Pressure Humidity
    00:00 +9°C° 0.1 mm 5 mps 770 mmHg 80%
    01:00 +8°C° 0 mm 5 mps 771 mmHg 80%
    02:00 +8°C° 0 mm 4 mps 772 mmHg 79%
    03:00 +8°C° 0 mm 4 mps 772 mmHg 79%
    04:00 +8°C° 0 mm 4 mps 773 mmHg 79%
    05:00 +8°C° 0 mm 4 mps 773 mmHg 79%
    06:00 +9°C° 0 mm 3 mps 774 mmHg 79%
    07:00 +11°C° 0.1 mm 4 mps 774 mmHg 74%
    08:00 +12°C° 0.1 mm 4 mps 775 mmHg 69%
    09:00 +14°C° 0.1 mm 5 mps 775 mmHg 64%
    10:00 +14°C° 0.1 mm 5 mps 775 mmHg 61%
    11:00 +15°C° 0.1 mm 5 mps 776 mmHg 59%
    12:00 +15°C° 0.1 mm 5 mps 776 mmHg 56%
    13:00 +15°C° 0 mm 5 mps 776 mmHg 57%
    14:00 +15°C° 0 mm 6 mps 776 mmHg 57%
    15:00 +15°C° 0 mm 6 mps 776 mmHg 58%
    16:00 +14°C° 0 mm 5 mps 776 mmHg 61%
    17:00 +12°C° 0 mm 4 mps 776 mmHg 64%
    18:00 +11°C° 0 mm 4 mps 776 mmHg 67%
    19:00 +10°C° 0 mm 3 mps 777 mmHg 69%
    20:00 +10°C° 0 mm 3 mps 777 mmHg 70%
    21:00 +10°C° 0 mm 3 mps 777 mmHg 72%
    22:00 +9°C° 0 mm 2 mps 777 mmHg 73%
    23:00 +9°C° 0 mm 2 mps 777 mmHg 75%

    Day after tomorrow, 25 September, Tuesday

    Time Temperature Precipitation Wind Pressure Humidity
    00:00 +9°C° 0 mm 2 mps 777 mmHg 77%
    01:00 +8°C° 0 mm 2 mps 777 mmHg 78%
    02:00 +8°C° 0 mm 2 mps 777 mmHg 79%
    03:00 +9°C° 0 mm 1 mps 777 mmHg 81%
    04:00 +9°C° 0 mm 1 mps 777 mmHg 82%
    05:00 +8°C° 0 mm 1 mps 777 mmHg 83%
    06:00 +8°C° 0 mm 1 mps 777 mmHg 85%
    07:00 +10°C° 0 mm 1 mps 777 mmHg 78%
    08:00 +12°C° 0 mm 2 mps 777 mmHg 71%
    09:00 +14°C° 0 mm 2 mps 777 mmHg 64%
    10:00 +15°C° 0 mm 2 mps 777 mmHg 59%
    11:00 +15°C° 0 mm 2 mps 777 mmHg 54%
    12:00 +16°C° 0 mm 2 mps 777 mmHg 50%
    13:00 +17°C° 0 mm 2 mps 776 mmHg 49%
    14:00 +17°C° 0 mm 2 mps 776 mmHg 48%
    15:00 +17°C° 0 mm 2 mps 775 mmHg 47%
    16:00 +16°C° 0 mm 2 mps 775 mmHg 51%
    17:00 +14°C° 0 mm 2 mps 775 mmHg 55%
    18:00 +13°C° 0 mm 2 mps 775 mmHg 59%
    19:00 +12°C° 0 mm 2 mps 775 mmHg 61%
    20:00 +12°C° 0 mm 2 mps 775 mmHg 62%
    21:00 +10°C° 0 mm 2 mps 775 mmHg 64%
    22:00 +10°C° 0 mm 3 mps 775 mmHg 66%
    23:00 +9°C° 0 mm 3 mps 775 mmHg 67%

    26 September, Wednesday

    Time Temperature Precipitation Wind Pressure Humidity
    00:00 +9°C° 0 mm 3 mps 774 mmHg 69%
    01:00 +8°C° 0 mm 3 mps 774 mmHg 70%
    02:00 +8°C° 0 mm 3 mps 774 mmHg 70%
    03:00 +8°C° 0 mm 3 mps 773 mmHg 71%
    04:00 +8°C° 0 mm 3 mps 773 mmHg 70%
    05:00 +7°C° 0 mm 2 mps 773 mmHg 69%
    06:00 +7°C° 0 mm 2 mps 773 mmHg 68%
    07:00 +9°C° 0 mm 3 mps 773 mmHg 62%
    08:00 +11°C° 0 mm 3 mps 773 mmHg 57%
    09:00 +13°C° 0 mm 3 mps 773 mmHg 51%
    10:00 +16°C° 0 mm 3 mps 772 mmHg 47%
    11:00 +17°C° 0 mm 3 mps 772 mmHg 43%
    12:00 +18°C° 0 mm 3 mps 772 mmHg 39%
    13:00 +19°C° 0 mm 3 mps 772 mmHg 39%
    14:00 +19°C° 0 mm 3 mps 771 mmHg 39%
    15:00 +20°C° 0 mm 3 mps 771 mmHg 39%
    16:00 +18°C° 0 mm 3 mps 771 mmHg 44%
    17:00 +16°C° 0 mm 2 mps 771 mmHg 48%
    18:00 +14°C° 0 mm 2 mps 771 mmHg 53%
    19:00 +14°C° 0 mm 2 mps 771 mmHg 54%
    20:00 +13°C° 0 mm 3 mps 771 mmHg 55%
    21:00 +12°C° 0 mm 3 mps 771 mmHg 56%
    22:00 +12°C° 0 mm 3 mps 771 mmHg 57%
    23:00 +12°C° 0 mm 3 mps 771 mmHg 58%

    27 September, Thursday

    Time Temperature Precipitation Wind Pressure Humidity
    00:00 +11°C° 0 mm 3 mps 771 mmHg 59%
    01:00 +11°C° 0 mm 3 mps 771 mmHg 59%
    02:00 +11°C° 0 mm 3 mps 771 mmHg 60%
    03:00 +12°C° 0 mm 2 mps 771 mmHg 60%
    04:00 +10°C° 0 mm 2 mps 771 mmHg 61%
    05:00 +10°C° 0 mm 2 mps 771 mmHg 61%
    06:00 +10°C° 0 mm 2 mps 770 mmHg 62%
    07:00 +12°C° 0 mm 3 mps 770 mmHg 58%
    08:00 +14°C° 0 mm 3 mps 770 mmHg 54%
    09:00 +16°C° 0 mm 3 mps 770 mmHg 51%
    10:00 +18°C° 0 mm 3 mps 770 mmHg 47%
    11:00 +19°C° 0 mm 3 mps 770 mmHg 43%
    12:00 +21°C° 0 mm 2 mps 769 mmHg 39%
    13:00 +21°C° 0 mm 2 mps 769 mmHg 39%
    14:00 +21°C° 0 mm 2 mps 768 mmHg 39%
    15:00 +23°C° 0 mm 2 mps 768 mmHg 38%
    16:00 +21°C° 0 mm 1 mps 768 mmHg 43%
    17:00 +19°C° 0 mm 1 mps 768 mmHg 48%
    18:00 +16°C° 0 mm 1 mps 767 mmHg 53%
    19:00 +15°C° 0 mm 1 mps 768 mmHg 55%
    20:00 +14°C° 0 mm 1 mps 768 mmHg 57%
    21:00 +14°C° 0 mm 1 mps 768 mmHg 59%
    22:00 +14°C° 0 mm 1 mps 767 mmHg 61%
    23:00 +13°C° 0 mm 1 mps 767 mmHg 62%

    28 September, Friday

    Time Temperature Precipitation Wind Pressure Humidity
    00:00 +13°C° 0 mm 1 mps 767 mmHg 63%
    01:00 +12°C° 0 mm 1 mps 766 mmHg 65%
    02:00 +12°C° 0 mm 1 mps 766 mmHg 67%
    03:00 +12°C° 0 mm 1 mps 766 mmHg 69%
    04:00 +12°C° 0 mm 1 mps 766 mmHg 69%
    05:00 +11°C° 0 mm 1 mps 766 mmHg 70%
    06:00 +11°C° 0 mm 1 mps 765 mmHg 71%
    07:00 +13°C° 0 mm 1 mps 765 mmHg 66%
    08:00 +15°C° 0 mm 2 mps 765 mmHg 61%
    09:00 +17°C° 0 mm 2 mps 765 mmHg 56%
    10:00 +19°C° 0 mm 2 mps 765 mmHg 52%
    11:00 +20°C° 0 mm 2 mps 765 mmHg 49%
    12:00 +21°C° 0 mm 2 mps 765 mmHg 45%
    13:00 +21°C° 0 mm 2 mps 764 mmHg 45%
    14:00 +22°C° 0 mm 3 mps 764 mmHg 45%
    15:00 +22°C° 0 mm 3 mps 764 mmHg 45%
    16:00 +20°C° 0 mm 4 mps 764 mmHg 50%
    17:00 +18°C° 0 mm 4 mps 764 mmHg 56%
    18:00 +17°C° 0 mm 4 mps 764 mmHg 61%
    19:00 +15°C° 0 mm 5 mps 765 mmHg 65%
    20:00 +15°C° 0 mm 6 mps 765 mmHg 69%
    21:00 +15°C° 0 mm 6 mps 766 mmHg 72%
    22:00 +14°C° 0 mm 6 mps 766 mmHg 79%
    23:00 +13°C° 0 mm 6 mps 766 mmHg 86%
    Show more